Home > Weather > Macon > Past weeks

Flag for USA Weather for the Past 2 Weeks in Macon, Georgia, USA

Now
75 °F

Overcast.


Feels Like: 77 °F
Forecast: 65 / 79 °F
Wind: 9 mph from Southwest

Location: Middle Georgia Regional Airport

Current Time: May 3, 2016 at 12:50:12 PM

Latest Report: May 3, 2016 at 11:53 AM


Visibility: 10 mi

Pressure: 29.90 "Hg

Humidity: 71%

Dew Point: 65 °F

Location of MaconLocation

Historic Weather in Macon — Graph

°F

Macon Temperature Yesterday

Maximum temperature yesterday: 87 °F (at 3:53 PM)
Minimum temperature yesterday: 68 °F (at 8:53 PM)
Average temperature yesterday: 76 °F

High & Low Weather Summary for the Past Weeks

 TemperatureHumidityPressure
High90 °F (Apr 29, 3:53 PM)100% (Apr 22, 10:53 PM)30.34 "Hg (Apr 22, 10:53 PM)
Low45 °F (Apr 19, 5:53 AM)20% (Apr 19, 4:53 PM)29.82 "Hg (Apr 27, 5:53 PM)
Average71 °F72%29.98 "Hg
* Reported Apr 18 11:53 AM — May 3 11:00 AM, Macon, Weather by CustomWeather, © 2016

Note: Actual official high and low records may vary slightly from our data, if they occured in-between our weather recording intervals... More about our weather records

Advertising

Macon Weather History for the Previous 24 Hours

Scroll right to see more
 ConditionsComfort  
Time TempWeatherWind HumidityBarometerVisibility
11:00 AM
Tue, May 3
73 °FMore clouds than sun.7 mph76%29.92 "Hg10 mi
9:53 AM72 °FPartly sunny.12 mph78%29.90 "Hg10 mi
8:53 AM69 °FMostly cloudy.9 mph90%29.91 "Hg10 mi
7:53 AM68 °FOvercast.6 mph93%29.89 "Hg10 mi
6:53 AM69 °FLight rain. Mostly cloudy.5 mph90%29.88 "Hg8 mi
6:02 AM69 °FOvercast.3 mph93%29.88 "Hg8 mi
5:53 AM68 °FMostly cloudy.No wind96%29.87 "Hg9 mi
4:53 AM68 °FFog.No wind96%29.87 "Hg6 mi
3:53 AM68 °FPartly cloudy.No wind93%29.87 "Hg10 mi
2:53 AM68 °FMostly cloudy.3 mph96%29.88 "Hg7 mi
1:53 AM68 °FLight rain. Fog.5 mph96%29.89 "Hg6 mi
12:53 AM68 °FClear.5 mph93%29.90 "Hg8 mi
11:53 PM
Mon, May 2
69 °FClear.No wind90%29.93 "Hg10 mi
10:53 PM69 °FLight rain. Mostly cloudy.6 mph90%29.96 "Hg10 mi
9:53 PM68 °FPassing clouds.No wind87%29.93 "Hg10 mi
8:53 PM68 °FLight rain. Partly sunny.No wind84%29.93 "Hg8 mi
7:53 PM79 °FOvercast.No wind72%29.90 "Hg10 mi
6:53 PM82 °FScattered clouds.8 mph55%29.88 "Hg10 mi
5:53 PM85 °FScattered clouds.9 mph50%29.88 "Hg10 mi
4:53 PM86 °FScattered clouds.14 mph48%29.90 "Hg10 mi
3:53 PM87 °FSunny.12 mph50%29.93 "Hg10 mi
2:53 PM82 °FScattered clouds.5 mph53%29.97 "Hg10 mi
1:53 PM86 °FPassing clouds.15 mph48%29.99 "Hg10 mi
12:53 PM84 °FPartly sunny.8 mph53%29.99 "Hg10 mi
Weather by CustomWeather, © 2016

See weather overviewHow to use our weather pages